Regional Weather Roundup
Issued by NWS

Current Version | Previous Version | Text Only | Print | Product List | Glossary On
Versions: 1 2 3 4 5 6 7 8 9 10 11 12 13 14 15 16 17 18 19 20 21 22 23 24 25 26 27 28 29 30 31 32 33 34 35 36 37 38 39 40 41 42 43 44 45 46 47 48 49 50
000
ASUS44 KMEG 230310
RWRTN
TENNESSEE HOURLY STATE WEATHER ROUNDUP
NATIONAL WEATHER SERVICE MEMPHIS TN
1000 PM CDT WED MAR 22 2017

TNZ002-004-019-021-049-052-054-088>092-230400-
WEST TENNESSEE

CITY           SKY/WX    TMP DP  RH WIND       PRES   REMARKS
MEMPHIS INTL   NOT AVBL
NWS MEMPHIS      N/A     54 N/A N/A MISG        N/A
JACKSON        CLEAR     53  26  35 E10       30.30R
DYERSBURG      CLEAR     50  29  44 NE9       30.32R
SOMERVILLE     CLEAR     54  28  37 CALM      30.28R
BOLIVAR        CLEAR     52  27  37 NE7       30.27S
PARIS          CLEAR     45  25  45 E7        30.33S
HUNTINGDON     CLOUDY    48  27  43 E7        30.32S
SAVANNAH       CLEAR     52  27  37 NE8       30.29R
$$

TNZ008-025-027-028-033-062-065-066-230400-
NORTH MIDDLE TENNESSEE

CITY           SKY/WX    TMP DP  RH WIND       PRES   REMARKS
NASHVILLE      CLEAR     47  20  34 NE9       30.36R
PORTLAND       CLEAR     43  19  39 NE9       30.37S
CLARKSVILLE    CLOUDY    45  20  36 NE9       30.37R
SMYRNA         CLEAR     47  22  37 N8        30.36R
COOKEVILLE     CLEAR     45  19  36 N6        30.33S
GALLATIN       CLEAR     45  19  36 NE7G13    30.39S
CROSSVILLE     CLEAR     41  20  43 N7        30.34R
$$

TNZ061-075-076-078-094-096-097-230400-
SOUTH MIDDLE TENNESSEE

CITY           SKY/WX    TMP DP  RH WIND       PRES   REMARKS
FAYETTEVILLE   CLEAR     48  25  40 N8        30.31R
TULLAHOMA      CLEAR     46  14  27 NE7       30.32S
WINCHESTER     CLEAR     46  19  34 N3        30.32R
MCMINNVILLE    CLEAR     43  21  42 NE9       30.33R
COLUMBIA       CLEAR     48  21  34 NE3       30.32S
SHELBYVILLE    CLEAR     46  27  46 N8        30.34R
$$

TNZ017-018-042-046-047-230400-
NORTHEAST TENNESSEE

CITY           SKY/WX    TMP DP  RH WIND       PRES   REMARKS
TRI CITIES     PTCLDY    38  20  48 NE3       30.36R
$$

TNZ012-013-036-069-073-074-230400-
CENTRAL EAST TENNESSEE

CITY           SKY/WX    TMP DP  RH WIND       PRES   REMARKS
KNOXVILLE      PTCLDY    48  19  31 NE9       30.31R
OAK RIDGE      CLEAR     48  15  26 NE5       30.34R
DOWNTOWN KNOXV CLEAR     46  28  49 CALM      30.33R
GATLINBURG     CLEAR     39  28  65 CALM      30.32R
MORRISTOWN     CLEAR     46  16  29 E6        30.33R
JACKSBORO      CLEAR     41  18  38 CALM      30.38R
$$

TNZ083-085-099-230400-
SOUTHEAST TENNESSEE

CITY           SKY/WX    TMP DP  RH WIND       PRES   REMARKS
CHATTANOOGA    PTCLDY    50  29  44 N5        30.30R
$$

SKY/WX REPORTED AS FAIR MEANS FEW OR NO CLOUDS BELOW
12 THOUSAND FEET.




USA.gov is the U.S. government's official web portal to all federal, state and local government web resources and services.